owner,sensor,date,latitude,longitude,vertical_datum,wind_speed,wind_to_direction,wind_speed_of_gust,qcFlag 
FIT,ioos:station:wmo:SIPF1:1,2014-02-01T00:00:00Z,27.8620,-80.4450,1.0,4.8,338.0,99.0,'11111222,11111222,11144222' 
FIT,ioos:station:wmo:SIPF1:1,2014-02-01T00:15:00Z,27.8620,-80.4450,1.0,5.4,335.0,99.0,'11111222,11111222,11144222' 
FIT,ioos:station:wmo:SIPF1:1,2014-02-01T00:30:00Z,27.8620,-80.4450,1.0,6.2,337.0,99.0,'11111222,11111222,11144222' 
FIT,ioos:station:wmo:SIPF1:1,2014-02-01T00:45:00Z,27.8620,-80.4450,1.0,6.3,343.0,99.0,'11111222,11111222,11144222' 
FIT,ioos:station:wmo:SIPF1:1,2014-02-01T01:00:00Z,27.8620,-80.4450,1.0,5.1,342.0,99.0,'11111222,11111222,11144222' 
FIT,ioos:station:wmo:SIPF1:1,2014-02-01T01:15:00Z,27.8620,-80.4450,1.0,5.4,338.0,99.0,'11111222,11111222,11144222' 
FIT,ioos:station:wmo:SIPF1:1,2014-02-01T01:30:00Z,27.8620,-80.4450,1.0,5.1,346.0,99.0,'11111222,11111222,11144222' 
FIT,ioos:station:wmo:SIPF1:1,2014-02-01T01:45:00Z,27.8620,-80.4450,1.0,4.3,344.0,99.0,'11111222,11111222,11144222' 
FIT,ioos:station:wmo:SIPF1:1,2014-02-01T02:00:00Z,27.8620,-80.4450,1.0,5.3,345.0,99.0,'11111222,11111222,11144222' 
FIT,ioos:station:wmo:SIPF1:1,2014-02-01T02:15:00Z,27.8620,-80.4450,1.0,5.4,343.0,99.0,'11111222,11111222,11144222' 
FIT,ioos:station:wmo:SIPF1:1,2014-02-01T02:30:00Z,27.8620,-80.4450,1.0,5.7,346.0,99.0,'11111222,11111222,11144222' 
FIT,ioos:station:wmo:SIPF1:1,2014-02-01T02:45:00Z,27.8620,-80.4450,1.0,6.1,342.0,99.0,'11111222,11111222,11144222' 
FIT,ioos:station:wmo:SIPF1:1,2014-02-01T03:00:00Z,27.8620,-80.4450,1.0,5.3,349.0,99.0,'11111222,11111222,11144222' 
FIT,ioos:station:wmo:SIPF1:1,2014-02-01T03:15:00Z,27.8620,-80.4450,1.0,4.8,5.0,99.0,'11111222,11111222,11144222' 
FIT,ioos:station:wmo:SIPF1:1,2014-02-01T03:30:00Z,27.8620,-80.4450,1.0,3.4,354.0,99.0,'11111222,11111222,11144222' 
FIT,ioos:station:wmo:SIPF1:1,2014-02-01T03:45:00Z,27.8620,-80.4450,1.0,3.0,348.0,99.0,'11111222,11111222,11144222' 
FIT,ioos:station:wmo:SIPF1:1,2014-02-01T04:00:00Z,27.8620,-80.4450,1.0,3.7,343.0,99.0,'11111222,11111222,11144222' 
FIT,ioos:station:wmo:SIPF1:1,2014-02-01T04:15:00Z,27.8620,-80.4450,1.0,4.5,335.0,99.0,'11111222,11111222,11144222' 
FIT,ioos:station:wmo:SIPF1:1,2014-02-01T04:30:00Z,27.8620,-80.4450,1.0,2.9,315.0,99.0,'11111222,11111222,11144222' 
FIT,ioos:station:wmo:SIPF1:1,2014-02-01T04:45:00Z,27.8620,-80.4450,1.0,3.4,331.0,99.0,'11111222,11111222,11144222' 
FIT,ioos:station:wmo:SIPF1:1,2014-02-01T05:00:00Z,27.8620,-80.4450,1.0,3.9,334.0,99.0,'11111222,11111222,11144222' 
FIT,ioos:station:wmo:SIPF1:1,2014-02-01T05:15:00Z,27.8620,-80.4450,1.0,4.2,341.0,99.0,'11111222,11111222,11144222' 
FIT,ioos:station:wmo:SIPF1:1,2014-02-01T05:30:00Z,27.8620,-80.4450,1.0,2.7,358.0,99.0,'11111222,11111222,11144222' 
FIT,ioos:station:wmo:SIPF1:1,2014-02-01T05:45:00Z,27.8620,-80.4450,1.0,2.3,358.0,99.0,'11111222,11111222,11144222' 
FIT,ioos:station:wmo:SIPF1:1,2014-02-01T06:00:00Z,27.8620,-80.4450,1.0,3.3,335.0,99.0,'11111222,11111222,11144222' 
FIT,ioos:station:wmo:SIPF1:1,2014-02-01T06:15:00Z,27.8620,-80.4450,1.0,1.7,346.0,99.0,'11111222,11111222,11144222' 
FIT,ioos:station:wmo:SIPF1:1,2014-02-01T06:30:00Z,27.8620,-80.4450,1.0,1.8,335.0,99.0,'11111222,11111222,11144222' 
FIT,ioos:station:wmo:SIPF1:1,2014-02-01T06:45:00Z,27.8620,-80.4450,1.0,1.6,351.0,99.0,'11111222,11111222,11144222' 
FIT,ioos:station:wmo:SIPF1:1,2014-02-01T07:00:00Z,27.8620,-80.4450,1.0,1.0,334.0,99.0,'11111222,11111222,11144222' 
FIT,ioos:station:wmo:SIPF1:1,2014-02-01T07:15:00Z,27.8620,-80.4450,1.0,1.2,296.0,99.0,'11111222,11111222,11144222' 
FIT,ioos:station:wmo:SIPF1:1,2014-02-01T07:30:00Z,27.8620,-80.4450,1.0,1.1,267.0,99.0,'11111222,11111222,11144222' 
FIT,ioos:station:wmo:SIPF1:1,2014-02-01T07:45:00Z,27.8620,-80.4450,1.0,2.3,286.0,99.0,'11111222,11111222,11144222' 
FIT,ioos:station:wmo:SIPF1:1,2014-02-01T08:00:00Z,27.8620,-80.4450,1.0,0.9,304.0,99.0,'11111222,11111222,11144222' 
FIT,ioos:station:wmo:SIPF1:1,2014-02-01T08:15:00Z,27.8620,-80.4450,1.0,0.1,310.0,99.0,'11111222,11111222,11144222' 
FIT,ioos:station:wmo:SIPF1:1,2014-02-01T08:30:00Z,27.8620,-80.4450,1.0,0.4,34.0,99.0,'11111222,11111222,11144222' 
FIT,ioos:station:wmo:SIPF1:1,2014-02-01T08:45:00Z,27.8620,-80.4450,1.0,1.1,340.0,99.0,'11111222,11111222,11144222' 
FIT,ioos:station:wmo:SIPF1:1,2014-02-01T09:00:00Z,27.8620,-80.4450,1.0,1.1,4.0,99.0,'11111222,11111222,11144222' 
FIT,ioos:station:wmo:SIPF1:1,2014-02-01T09:15:00Z,27.8620,-80.4450,1.0,0.9,33.0,99.0,'11111222,11111222,11144222' 
FIT,ioos:station:wmo:SIPF1:1,2014-02-01T09:30:00Z,27.8620,-80.4450,1.0,1.2,3.0,99.0,'11111222,11111222,11144222' 
FIT,ioos:station:wmo:SIPF1:1,2014-02-01T09:45:00Z,27.8620,-80.4450,1.0,2.0,343.0,99.0,'11111222,11111222,11144222' 
FIT,ioos:station:wmo:SIPF1:1,2014-02-01T10:00:00Z,27.8620,-80.4450,1.0,1.0,312.0,99.0,'11111222,11111222,11144222' 
FIT,ioos:station:wmo:SIPF1:1,2014-02-01T10:15:00Z,27.8620,-80.4450,1.0,0.6,238.0,99.0,'11111222,11111222,11144222' 
FIT,ioos:station:wmo:SIPF1:1,2014-02-01T10:30:00Z,27.8620,-80.4450,1.0,1.3,179.0,99.0,'11111222,11111222,11144222' 
FIT,ioos:station:wmo:SIPF1:1,2014-02-01T10:45:00Z,27.8620,-80.4450,1.0,1.4,149.0,99.0,'11111222,11111222,11144222' 
FIT,ioos:station:wmo:SIPF1:1,2014-02-01T11:00:00Z,27.8620,-80.4450,1.0,0.6,193.0,99.0,'11111222,11111222,11144222' 
FIT,ioos:station:wmo:SIPF1:1,2014-02-01T11:15:00Z,27.8620,-80.4450,1.0,0.8,175.0,99.0,'11111222,11111222,11144222' 
FIT,ioos:station:wmo:SIPF1:1,2014-02-01T11:30:00Z,27.8620,-80.4450,1.0,2.0,142.0,99.0,'11111222,11111222,11144222' 
FIT,ioos:station:wmo:SIPF1:1,2014-02-01T11:45:00Z,27.8620,-80.4450,1.0,2.6,140.0,99.0,'11111222,11111222,11144222' 
FIT,ioos:station:wmo:SIPF1:1,2014-02-01T12:00:00Z,27.8620,-80.4450,1.0,2.4,154.0,99.0,'11111222,11111222,11144222' 
FIT,ioos:station:wmo:SIPF1:1,2014-02-01T12:15:00Z,27.8620,-80.4450,1.0,3.5,142.0,99.0,'11111222,11111222,11144222' 
FIT,ioos:station:wmo:SIPF1:1,2014-02-01T12:30:00Z,27.8620,-80.4450,1.0,3.4,156.0,99.0,'11111222,11111222,11144222' 
FIT,ioos:station:wmo:SIPF1:1,2014-02-01T12:45:00Z,27.8620,-80.4450,1.0,3.4,158.0,99.0,'11111222,11111222,11144222' 
FIT,ioos:station:wmo:SIPF1:1,2014-02-01T13:00:00Z,27.8620,-80.4450,1.0,3.4,157.0,99.0,'11111222,11111222,11144222' 
FIT,ioos:station:wmo:SIPF1:1,2014-02-01T13:15:00Z,27.8620,-80.4450,1.0,3.2,165.0,99.0,'11111222,11111222,11144222' 
FIT,ioos:station:wmo:SIPF1:1,2014-02-01T13:30:00Z,27.8620,-80.4450,1.0,3.2,169.0,99.0,'11111222,11111222,11144222' 
FIT,ioos:station:wmo:SIPF1:1,2014-02-01T13:45:00Z,27.8620,-80.4450,1.0,3.0,160.0,99.0,'11111222,11111222,11144222' 
FIT,ioos:station:wmo:SIPF1:1,2014-02-01T14:00:00Z,27.8620,-80.4450,1.0,2.6,173.0,99.0,'11111222,11111222,11144222' 
FIT,ioos:station:wmo:SIPF1:1,2014-02-01T14:15:00Z,27.8620,-80.4450,1.0,2.2,175.0,99.0,'11111222,11111222,11144222' 
FIT,ioos:station:wmo:SIPF1:1,2014-02-01T14:30:00Z,27.8620,-80.4450,1.0,2.8,161.0,99.0,'11111222,11111222,11144222' 
FIT,ioos:station:wmo:SIPF1:1,2014-02-01T14:45:00Z,27.8620,-80.4450,1.0,2.4,151.0,99.0,'11111222,11111222,11144222' 
FIT,ioos:station:wmo:SIPF1:1,2014-02-01T15:00:00Z,27.8620,-80.4450,1.0,2.3,141.0,99.0,'11111222,11111222,11144222' 
FIT,ioos:station:wmo:SIPF1:1,2014-02-01T15:15:00Z,27.8620,-80.4450,1.0,2.0,149.0,99.0,'11111222,11111222,11144222' 
FIT,ioos:station:wmo:SIPF1:1,2014-02-01T15:30:00Z,27.8620,-80.4450,1.0,2.0,148.0,99.0,'11111222,11111222,11144222' 
FIT,ioos:station:wmo:SIPF1:1,2014-02-01T15:45:00Z,27.8620,-80.4450,1.0,2.7,154.0,99.0,'11111222,11111222,11144222' 
FIT,ioos:station:wmo:SIPF1:1,2014-02-01T16:00:00Z,27.8620,-80.4450,1.0,3.8,150.0,99.0,'11111222,11111222,11144222' 
FIT,ioos:station:wmo:SIPF1:1,2014-02-01T16:15:00Z,27.8620,-80.4450,1.0,4.6,144.0,99.0,'11111222,11111222,11144222' 
FIT,ioos:station:wmo:SIPF1:1,2014-02-01T16:30:00Z,27.8620,-80.4450,1.0,4.6,156.0,99.0,'11111222,11111222,11144222' 
FIT,ioos:station:wmo:SIPF1:1,2014-02-01T16:45:00Z,27.8620,-80.4450,1.0,4.3,146.0,99.0,'11111222,11111222,11144222' 
FIT,ioos:station:wmo:SIPF1:1,2014-02-01T17:00:00Z,27.8620,-80.4450,1.0,4.4,146.0,99.0,'11111222,11111222,11144222' 
FIT,ioos:station:wmo:SIPF1:1,2014-02-01T17:15:00Z,27.8620,-80.4450,1.0,5.0,140.0,99.0,'11111222,11111222,11144222' 
FIT,ioos:station:wmo:SIPF1:1,2014-02-01T17:30:00Z,27.8620,-80.4450,1.0,5.6,131.0,99.0,'11111222,11111222,11144222' 
FIT,ioos:station:wmo:SIPF1:1,2014-02-01T17:45:00Z,27.8620,-80.4450,1.0,5.8,135.0,99.0,'11111222,11111222,11144222' 
FIT,ioos:station:wmo:SIPF1:1,2014-02-01T18:00:00Z,27.8620,-80.4450,1.0,6.4,146.0,99.0,'11111222,11111222,11144222' 
FIT,ioos:station:wmo:SIPF1:1,2014-02-01T18:15:00Z,27.8620,-80.4450,1.0,5.9,150.0,99.0,'11111222,11111222,11144222' 
FIT,ioos:station:wmo:SIPF1:1,2014-02-01T18:30:00Z,27.8620,-80.4450,1.0,5.9,150.0,99.0,'11111222,11111222,11144222' 
FIT,ioos:station:wmo:SIPF1:1,2014-02-01T18:45:00Z,27.8620,-80.4450,1.0,6.2,148.0,99.0,'11111222,11111222,11144222' 
FIT,ioos:station:wmo:SIPF1:1,2014-02-01T19:00:00Z,27.8620,-80.4450,1.0,6.5,142.0,99.0,'11111222,11111222,11144222' 
FIT,ioos:station:wmo:SIPF1:1,2014-02-01T19:15:00Z,27.8620,-80.4450,1.0,6.5,142.0,99.0,'11111222,11111222,11144222' 
FIT,ioos:station:wmo:SIPF1:1,2014-02-01T19:30:00Z,27.8620,-80.4450,1.0,5.8,142.0,99.0,'11111222,11111222,11144222' 
FIT,ioos:station:wmo:SIPF1:1,2014-02-01T19:45:00Z,27.8620,-80.4450,1.0,5.7,138.0,99.0,'11111222,11111222,11144222' 
FIT,ioos:station:wmo:SIPF1:1,2014-02-01T20:00:00Z,27.8620,-80.4450,1.0,4.8,144.0,99.0,'11111222,11111222,11144222' 
FIT,ioos:station:wmo:SIPF1:1,2014-02-01T20:15:00Z,27.8620,-80.4450,1.0,4.2,146.0,99.0,'11111222,11111222,11144222' 
FIT,ioos:station:wmo:SIPF1:1,2014-02-01T20:30:00Z,27.8620,-80.4450,1.0,4.4,141.0,99.0,'11111222,11111222,11144222' 
FIT,ioos:station:wmo:SIPF1:1,2014-02-01T20:45:00Z,27.8620,-80.4450,1.0,4.2,146.0,99.0,'11111222,11111222,11144222' 
FIT,ioos:station:wmo:SIPF1:1,2014-02-01T21:00:00Z,27.8620,-80.4450,1.0,2.9,146.0,99.0,'11111222,11111222,11144222' 
FIT,ioos:station:wmo:SIPF1:1,2014-02-01T21:15:00Z,27.8620,-80.4450,1.0,2.5,144.0,99.0,'11111222,11111222,11144222' 
FIT,ioos:station:wmo:SIPF1:1,2014-02-01T21:30:00Z,27.8620,-80.4450,1.0,1.9,188.0,99.0,'11111222,11111222,11144222' 
FIT,ioos:station:wmo:SIPF1:1,2014-02-01T21:45:00Z,27.8620,-80.4450,1.0,4.3,195.0,99.0,'11111222,11111222,11144222' 
FIT,ioos:station:wmo:SIPF1:1,2014-02-01T22:00:00Z,27.8620,-80.4450,1.0,5.3,155.0,99.0,'11111222,11111222,11144222' 
FIT,ioos:station:wmo:SIPF1:1,2014-02-01T22:15:00Z,27.8620,-80.4450,1.0,6.0,151.0,99.0,'11111222,11111222,11144222' 
FIT,ioos:station:wmo:SIPF1:1,2014-02-01T22:30:00Z,27.8620,-80.4450,1.0,5.6,147.0,99.0,'11111222,11111222,11144222' 
FIT,ioos:station:wmo:SIPF1:1,2014-02-01T22:45:00Z,27.8620,-80.4450,1.0,5.9,146.0,99.0,'11111222,11111222,11144222' 
FIT,ioos:station:wmo:SIPF1:1,2014-02-01T23:00:00Z,27.8620,-80.4450,1.0,6.1,146.0,99.0,'11111222,11111222,11144222' 
FIT,ioos:station:wmo:SIPF1:1,2014-02-01T23:15:00Z,27.8620,-80.4450,1.0,5.9,144.0,99.0,'11111222,11111222,11144222' 
FIT,ioos:station:wmo:SIPF1:1,2014-02-01T23:30:00Z,27.8620,-80.4450,1.0,5.6,149.0,99.0,'11111222,11111222,11144222' 
FIT,ioos:station:wmo:SIPF1:1,2014-02-01T23:45:00Z,27.8620,-80.4450,1.0,3.9,157.0,99.0,'11111222,11111222,11144222' 
FIT,ioos:station:wmo:SIPF1:1,2014-02-02T00:00:00Z,27.8620,-80.4450,1.0,3.7,162.0,99.0,'11111222,11111222,11144222' 
FIT,ioos:station:wmo:SIPF1:1,2014-02-02T00:15:00Z,27.8620,-80.4450,1.0,3.4,169.0,99.0,'11111222,11111222,11144222' 
FIT,ioos:station:wmo:SIPF1:1,2014-02-02T00:30:00Z,27.8620,-80.4450,1.0,4.0,159.0,99.0,'11111222,11111222,11144222' 
FIT,ioos:station:wmo:SIPF1:1,2014-02-02T00:45:00Z,27.8620,-80.4450,1.0,4.6,159.0,99.0,'11111222,11111222,11144222' 
FIT,ioos:station:wmo:SIPF1:1,2014-02-02T01:00:00Z,27.8620,-80.4450,1.0,4.6,157.0,99.0,'11111222,11111222,11144222' 
FIT,ioos:station:wmo:SIPF1:1,2014-02-02T01:15:00Z,27.8620,-80.4450,1.0,4.3,159.0,99.0,'11111222,11111222,11144222' 
FIT,ioos:station:wmo:SIPF1:1,2014-02-02T01:30:00Z,27.8620,-80.4450,1.0,4.2,161.0,99.0,'11111222,11111222,11144222' 
FIT,ioos:station:wmo:SIPF1:1,2014-02-02T01:45:00Z,27.8620,-80.4450,1.0,5.0,158.0,99.0,'11111222,11111222,11144222' 
FIT,ioos:station:wmo:SIPF1:1,2014-02-02T02:00:00Z,27.8620,-80.4450,1.0,5.2,159.0,99.0,'11111222,11111222,11144222' 
FIT,ioos:station:wmo:SIPF1:1,2014-02-02T02:15:00Z,27.8620,-80.4450,1.0,4.5,165.0,99.0,'11111222,11111222,11144222' 
FIT,ioos:station:wmo:SIPF1:1,2014-02-02T02:30:00Z,27.8620,-80.4450,1.0,4.3,167.0,99.0,'11111222,11111222,11144222' 
FIT,ioos:station:wmo:SIPF1:1,2014-02-02T02:45:00Z,27.8620,-80.4450,1.0,5.1,164.0,99.0,'11111222,11111222,11144222' 
FIT,ioos:station:wmo:SIPF1:1,2014-02-02T03:00:00Z,27.8620,-80.4450,1.0,5.0,167.0,99.0,'11111222,11111222,11144222' 
FIT,ioos:station:wmo:SIPF1:1,2014-02-02T03:15:00Z,27.8620,-80.4450,1.0,4.9,161.0,99.0,'11111222,11111222,11144222' 
FIT,ioos:station:wmo:SIPF1:1,2014-02-02T03:30:00Z,27.8620,-80.4450,1.0,5.3,158.0,99.0,'11111222,11111222,11144222' 
FIT,ioos:station:wmo:SIPF1:1,2014-02-02T03:45:00Z,27.8620,-80.4450,1.0,5.1,162.0,99.0,'11111222,11111222,11144222' 
FIT,ioos:station:wmo:SIPF1:1,2014-02-02T04:00:00Z,27.8620,-80.4450,1.0,5.3,163.0,99.0,'11111222,11111222,11144222' 
FIT,ioos:station:wmo:SIPF1:1,2014-02-02T04:15:00Z,27.8620,-80.4450,1.0,5.0,163.0,99.0,'11111222,11111222,11144222' 
FIT,ioos:station:wmo:SIPF1:1,2014-02-02T04:30:00Z,27.8620,-80.4450,1.0,5.4,164.0,99.0,'11111222,11111222,11144222' 
FIT,ioos:station:wmo:SIPF1:1,2014-02-02T04:45:00Z,27.8620,-80.4450,1.0,5.0,167.0,99.0,'11111222,11111222,11144222' 
FIT,ioos:station:wmo:SIPF1:1,2014-02-02T05:00:00Z,27.8620,-80.4450,1.0,3.9,170.0,99.0,'11111222,11111222,11144222' 
FIT,ioos:station:wmo:SIPF1:1,2014-02-02T05:15:00Z,27.8620,-80.4450,1.0,3.5,174.0,99.0,'11111222,11111222,11144222' 
FIT,ioos:station:wmo:SIPF1:1,2014-02-02T05:30:00Z,27.8620,-80.4450,1.0,3.0,183.0,99.0,'11111222,11111222,11144222' 
FIT,ioos:station:wmo:SIPF1:1,2014-02-02T05:45:00Z,27.8620,-80.4450,1.0,2.2,175.0,99.0,'11111222,11111222,11144222' 
FIT,ioos:station:wmo:SIPF1:1,2014-02-02T06:00:00Z,27.8620,-80.4450,1.0,2.5,185.0,99.0,'11111222,11111222,11144222' 
FIT,ioos:station:wmo:SIPF1:1,2014-02-02T06:15:00Z,27.8620,-80.4450,1.0,2.5,180.0,99.0,'11111222,11111222,11144222' 
FIT,ioos:station:wmo:SIPF1:1,2014-02-02T06:30:00Z,27.8620,-80.4450,1.0,2.0,180.0,99.0,'11111222,11111222,11144222' 
FIT,ioos:station:wmo:SIPF1:1,2014-02-02T06:45:00Z,27.8620,-80.4450,1.0,2.3,181.0,99.0,'11111222,11111222,11144222' 
FIT,ioos:station:wmo:SIPF1:1,2014-02-02T07:00:00Z,27.8620,-80.4450,1.0,2.8,178.0,99.0,'11111222,11111222,11144222' 
FIT,ioos:station:wmo:SIPF1:1,2014-02-02T07:15:00Z,27.8620,-80.4450,1.0,2.7,179.0,99.0,'11111222,11111222,11144222' 
FIT,ioos:station:wmo:SIPF1:1,2014-02-02T07:30:00Z,27.8620,-80.4450,1.0,2.7,181.0,99.0,'11111222,11111222,11144222' 
FIT,ioos:station:wmo:SIPF1:1,2014-02-02T07:45:00Z,27.8620,-80.4450,1.0,2.6,191.0,99.0,'11111222,11111222,11144222' 
FIT,ioos:station:wmo:SIPF1:1,2014-02-02T08:00:00Z,27.8620,-80.4450,1.0,2.5,197.0,99.0,'11111222,11111222,11144222' 
FIT,ioos:station:wmo:SIPF1:1,2014-02-02T08:15:00Z,27.8620,-80.4450,1.0,2.0,188.0,99.0,'11111222,11111222,11144222' 
FIT,ioos:station:wmo:SIPF1:1,2014-02-02T08:30:00Z,27.8620,-80.4450,1.0,1.8,201.0,99.0,'11111222,11111222,11144222' 
FIT,ioos:station:wmo:SIPF1:1,2014-02-02T08:45:00Z,27.8620,-80.4450,1.0,1.8,212.0,99.0,'11111222,11111222,11144222' 
FIT,ioos:station:wmo:SIPF1:1,2014-02-02T09:00:00Z,27.8620,-80.4450,1.0,1.7,218.0,99.0,'11111222,11111222,11144222' 
FIT,ioos:station:wmo:SIPF1:1,2014-02-02T09:15:00Z,27.8620,-80.4450,1.0,1.8,197.0,99.0,'11111222,11111222,11144222' 
FIT,ioos:station:wmo:SIPF1:1,2014-02-02T09:30:00Z,27.8620,-80.4450,1.0,1.9,197.0,99.0,'11111222,11111222,11144222' 
FIT,ioos:station:wmo:SIPF1:1,2014-02-02T09:45:00Z,27.8620,-80.4450,1.0,1.6,203.0,99.0,'11111222,11111222,11144222' 
FIT,ioos:station:wmo:SIPF1:1,2014-02-02T10:00:00Z,27.8620,-80.4450,1.0,1.7,232.0,99.0,'11111222,11111222,11144222' 
FIT,ioos:station:wmo:SIPF1:1,2014-02-02T10:15:00Z,27.8620,-80.4450,1.0,1.5,262.0,99.0,'11111222,11111222,11144222' 
FIT,ioos:station:wmo:SIPF1:1,2014-02-02T10:30:00Z,27.8620,-80.4450,1.0,1.3,260.0,99.0,'11111222,11111222,11144222' 
FIT,ioos:station:wmo:SIPF1:1,2014-02-02T10:45:00Z,27.8620,-80.4450,1.0,0.9,267.0,99.0,'11111222,11111222,11144222' 
FIT,ioos:station:wmo:SIPF1:1,2014-02-02T11:00:00Z,27.8620,-80.4450,1.0,1.3,263.0,99.0,'11111222,11111222,11144222' 
FIT,ioos:station:wmo:SIPF1:1,2014-02-02T11:15:00Z,27.8620,-80.4450,1.0,0.8,264.0,99.0,'11111222,11111222,11144222' 
FIT,ioos:station:wmo:SIPF1:1,2014-02-02T11:30:00Z,27.8620,-80.4450,1.0,0.5,292.0,99.0,'11111222,11111222,11144222' 
FIT,ioos:station:wmo:SIPF1:1,2014-02-02T11:45:00Z,27.8620,-80.4450,1.0,0.6,239.0,99.0,'11111222,11111222,11144222' 
FIT,ioos:station:wmo:SIPF1:1,2014-02-02T12:00:00Z,27.8620,-80.4450,1.0,1.0,223.0,99.0,'11111222,11111222,11144222' 
FIT,ioos:station:wmo:SIPF1:1,2014-02-02T12:15:00Z,27.8620,-80.4450,1.0,0.6,57.0,99.0,'11111222,11111222,11144222' 
FIT,ioos:station:wmo:SIPF1:1,2014-02-02T12:30:00Z,27.8620,-80.4450,1.0,1.4,22.0,99.0,'11111222,11111222,11144222' 
FIT,ioos:station:wmo:SIPF1:1,2014-02-02T12:45:00Z,27.8620,-80.4450,1.0,0.9,37.0,99.0,'11111222,11111222,11144222' 
FIT,ioos:station:wmo:SIPF1:1,2014-02-02T13:00:00Z,27.8620,-80.4450,1.0,0.4,44.0,99.0,'11111222,11111222,11144222' 
FIT,ioos:station:wmo:SIPF1:1,2014-02-02T13:15:00Z,27.8620,-80.4450,1.0,1.1,74.0,99.0,'11111222,11111222,11144222' 
FIT,ioos:station:wmo:SIPF1:1,2014-02-02T13:30:00Z,27.8620,-80.4450,1.0,1.0,120.0,99.0,'11111222,11111222,11144222' 
FIT,ioos:station:wmo:SIPF1:1,2014-02-02T13:45:00Z,27.8620,-80.4450,1.0,1.4,150.0,99.0,'11111222,11111222,11144222' 
FIT,ioos:station:wmo:SIPF1:1,2014-02-02T14:00:00Z,27.8620,-80.4450,1.0,0.7,146.0,99.0,'11111222,11111222,11144222' 
FIT,ioos:station:wmo:SIPF1:1,2014-02-02T14:15:00Z,27.8620,-80.4450,1.0,0.6,144.0,99.0,'11111222,11111222,11144222' 
FIT,ioos:station:wmo:SIPF1:1,2014-02-02T14:30:00Z,27.8620,-80.4450,1.0,0.7,146.0,99.0,'11111222,11111222,11144222' 
FIT,ioos:station:wmo:SIPF1:1,2014-02-02T14:45:00Z,27.8620,-80.4450,1.0,1.4,141.0,99.0,'11111222,11111222,11144222' 
FIT,ioos:station:wmo:SIPF1:1,2014-02-02T15:00:00Z,27.8620,-80.4450,1.0,2.0,163.0,99.0,'11111222,11111222,11144222' 
FIT,ioos:station:wmo:SIPF1:1,2014-02-02T15:15:00Z,27.8620,-80.4450,1.0,2.5,168.0,99.0,'11111222,11111222,11144222' 
FIT,ioos:station:wmo:SIPF1:1,2014-02-02T15:30:00Z,27.8620,-80.4450,1.0,3.2,157.0,99.0,'11111222,11111222,11144222' 
FIT,ioos:station:wmo:SIPF1:1,2014-02-02T15:45:00Z,27.8620,-80.4450,1.0,3.2,145.0,99.0,'11111222,11111222,11144222' 
FIT,ioos:station:wmo:SIPF1:1,2014-02-02T16:00:00Z,27.8620,-80.4450,1.0,2.8,141.0,99.0,'11111222,11111222,11144222' 
FIT,ioos:station:wmo:SIPF1:1,2014-02-02T16:15:00Z,27.8620,-80.4450,1.0,2.7,140.0,99.0,'11111222,11111222,11144222' 
FIT,ioos:station:wmo:SIPF1:1,2014-02-02T16:30:00Z,27.8620,-80.4450,1.0,4.3,142.0,99.0,'11111222,11111222,11144222' 
FIT,ioos:station:wmo:SIPF1:1,2014-02-02T16:45:00Z,27.8620,-80.4450,1.0,4.2,135.0,99.0,'11111222,11111222,11144222' 
FIT,ioos:station:wmo:SIPF1:1,2014-02-02T17:00:00Z,27.8620,-80.4450,1.0,4.2,131.0,99.0,'11111222,11111222,11144222' 
FIT,ioos:station:wmo:SIPF1:1,2014-02-02T17:15:00Z,27.8620,-80.4450,1.0,4.5,127.0,99.0,'11111222,11111222,11144222' 
FIT,ioos:station:wmo:SIPF1:1,2014-02-02T17:30:00Z,27.8620,-80.4450,1.0,4.5,127.0,99.0,'11111222,11111222,11144222' 
FIT,ioos:station:wmo:SIPF1:1,2014-02-02T17:45:00Z,27.8620,-80.4450,1.0,4.1,124.0,99.0,'11111222,11111222,11144222' 
FIT,ioos:station:wmo:SIPF1:1,2014-02-02T18:00:00Z,27.8620,-80.4450,1.0,3.9,123.0,99.0,'11111222,11111222,11144222' 
FIT,ioos:station:wmo:SIPF1:1,2014-02-02T18:15:00Z,27.8620,-80.4450,1.0,3.9,120.0,99.0,'11111222,11111222,11144222' 
FIT,ioos:station:wmo:SIPF1:1,2014-02-02T18:30:00Z,27.8620,-80.4450,1.0,4.1,118.0,99.0,'11111222,11111222,11144222' 
FIT,ioos:station:wmo:SIPF1:1,2014-02-02T18:45:00Z,27.8620,-80.4450,1.0,4.1,114.0,99.0,'11111222,11111222,11144222' 
FIT,ioos:station:wmo:SIPF1:1,2014-02-02T19:00:00Z,27.8620,-80.4450,1.0,4.2,109.0,99.0,'11111222,11111222,11144222' 
FIT,ioos:station:wmo:SIPF1:1,2014-02-02T19:15:00Z,27.8620,-80.4450,1.0,4.5,111.0,99.0,'11111222,11111222,11144222' 
FIT,ioos:station:wmo:SIPF1:1,2014-02-02T19:30:00Z,27.8620,-80.4450,1.0,4.4,107.0,99.0,'11111222,11111222,11144222' 
FIT,ioos:station:wmo:SIPF1:1,2014-02-02T19:45:00Z,27.8620,-80.4450,1.0,4.0,101.0,99.0,'11111222,11111222,11144222' 
FIT,ioos:station:wmo:SIPF1:1,2014-02-02T20:00:00Z,27.8620,-80.4450,1.0,4.0,95.0,99.0,'11111222,11111222,11144222' 
FIT,ioos:station:wmo:SIPF1:1,2014-02-02T20:15:00Z,27.8620,-80.4450,1.0,4.5,91.0,99.0,'11111222,11111222,11144222' 
FIT,ioos:station:wmo:SIPF1:1,2014-02-02T20:30:00Z,27.8620,-80.4450,1.0,4.6,91.0,99.0,'11111222,11111222,11144222' 
FIT,ioos:station:wmo:SIPF1:1,2014-02-02T20:45:00Z,27.8620,-80.4450,1.0,5.0,95.0,99.0,'11111222,11111222,11144222' 
FIT,ioos:station:wmo:SIPF1:1,2014-02-02T21:00:00Z,27.8620,-80.4450,1.0,5.2,101.0,99.0,'11111222,11111222,11144222' 
FIT,ioos:station:wmo:SIPF1:1,2014-02-02T21:15:00Z,27.8620,-80.4450,1.0,5.0,106.0,99.0,'11111222,11111222,11144222' 
FIT,ioos:station:wmo:SIPF1:1,2014-02-02T21:30:00Z,27.8620,-80.4450,1.0,4.5,110.0,99.0,'11111222,11111222,11144222' 
FIT,ioos:station:wmo:SIPF1:1,2014-02-02T21:45:00Z,27.8620,-80.4450,1.0,4.4,110.0,99.0,'11111222,11111222,11144222' 
FIT,ioos:station:wmo:SIPF1:1,2014-02-02T22:00:00Z,27.8620,-80.4450,1.0,4.4,103.0,99.0,'11111222,11111222,11144222' 
FIT,ioos:station:wmo:SIPF1:1,2014-02-02T22:15:00Z,27.8620,-80.4450,1.0,4.2,100.0,99.0,'11111222,11111222,11144222' 
FIT,ioos:station:wmo:SIPF1:1,2014-02-02T22:30:00Z,27.8620,-80.4450,1.0,3.9,101.0,99.0,'11111222,11111222,11144222' 
FIT,ioos:station:wmo:SIPF1:1,2014-02-02T22:45:00Z,27.8620,-80.4450,1.0,4.2,100.0,99.0,'11111222,11111222,11144222' 
FIT,ioos:station:wmo:SIPF1:1,2014-02-02T23:00:00Z,27.8620,-80.4450,1.0,4.7,106.0,99.0,'11111222,11111222,11144222' 
FIT,ioos:station:wmo:SIPF1:1,2014-02-02T23:15:00Z,27.8620,-80.4450,1.0,5.0,104.0,99.0,'11111222,11111222,11144222' 
FIT,ioos:station:wmo:SIPF1:1,2014-02-02T23:30:00Z,27.8620,-80.4450,1.0,4.7,104.0,99.0,'11111222,11111222,11144222' 
FIT,ioos:station:wmo:SIPF1:1,2014-02-02T23:45:00Z,27.8620,-80.4450,1.0,4.9,113.0,99.0,'11111222,11111222,11144222' 
FIT,ioos:station:wmo:SIPF1:1,2014-02-03T00:00:00Z,27.8620,-80.4450,1.0,4.9,112.0,99.0,'11111222,11111222,11144222' 
FIT,ioos:station:wmo:SIPF1:1,2014-02-03T00:15:00Z,27.8620,-80.4450,1.0,4.8,115.0,99.0,'11111222,11111222,11144222' 
FIT,ioos:station:wmo:SIPF1:1,2014-02-03T00:30:00Z,27.8620,-80.4450,1.0,4.7,116.0,99.0,'11111222,11111222,11144222' 
FIT,ioos:station:wmo:SIPF1:1,2014-02-03T00:45:00Z,27.8620,-80.4450,1.0,5.4,122.0,99.0,'11111222,11111222,11144222' 
FIT,ioos:station:wmo:SIPF1:1,2014-02-03T01:00:00Z,27.8620,-80.4450,1.0,5.3,121.0,99.0,'11111222,11111222,11144222' 
FIT,ioos:station:wmo:SIPF1:1,2014-02-03T01:15:00Z,27.8620,-80.4450,1.0,4.7,123.0,99.0,'11111222,11111222,11144222' 
FIT,ioos:station:wmo:SIPF1:1,2014-02-03T01:30:00Z,27.8620,-80.4450,1.0,5.3,128.0,99.0,'11111222,11111222,11144222' 
FIT,ioos:station:wmo:SIPF1:1,2014-02-03T01:45:00Z,27.8620,-80.4450,1.0,4.9,130.0,99.0,'11111222,11111222,11144222' 
FIT,ioos:station:wmo:SIPF1:1,2014-02-03T02:00:00Z,27.8620,-80.4450,1.0,3.7,142.0,99.0,'11111222,11111222,11144222' 
FIT,ioos:station:wmo:SIPF1:1,2014-02-03T02:15:00Z,27.8620,-80.4450,1.0,4.5,133.0,99.0,'11111222,11111222,11144222' 
FIT,ioos:station:wmo:SIPF1:1,2014-02-03T02:30:00Z,27.8620,-80.4450,1.0,4.7,134.0,99.0,'11111222,11111222,11144222' 
FIT,ioos:station:wmo:SIPF1:1,2014-02-03T02:45:00Z,27.8620,-80.4450,1.0,3.1,150.0,99.0,'11111222,11111222,11144222' 
FIT,ioos:station:wmo:SIPF1:1,2014-02-03T03:00:00Z,27.8620,-80.4450,1.0,3.7,135.0,99.0,'11111222,11111222,11144222' 
FIT,ioos:station:wmo:SIPF1:1,2014-02-03T03:15:00Z,27.8620,-80.4450,1.0,3.6,129.0,99.0,'11111222,11111222,11144222' 